EHI
44 52 56 54 53 56 60 58 56 54 49 43 39 33 26 18 10 6 5 5 5 5 3 2 3 2 1 0 1 1 1 1 2 3 3 3 3 2 2 1 0 0 0
47 55 62 63 63 64 64 61 58 57 56 50 42 35 27 19 12 9 10 8 6 5 3 2 2 1 0 0 0 1 2 2 2 3 3 3 3 1 1 0 0 0 0
45 56 68 71 70 68 67 65 64 64 63 57 46 37 29 21 14 13 14 14 10 6 5 3 1 0 1 1 1 1 3 3 2 2 2 2 2 1 0 0 0 0 0
39 51 66 69 67 65 63 65 67 68 67 60 49 40 31 22 16 15 17 16 13 9 6 4 3 3 2 1 1 3 3 2 2 2 1 1 1 0 0 0 0 0 0
33 43 56 62 62 60 59 61 66 69 67 61 53 44 34 26 21 19 19 18 15 10 6 5 6 6 4 3 5 6 4 3 3 4 3 2 1 0 0 0 0 0 0
31 38 49 57 60 58 57 58 61 63 62 58 52 44 38 33 28 24 22 20 16 12 9 7 9 9 6 7 10 10 7 5 5 6 7 6 3 1 1 0 0 0 1
30 35 44 53 55 54 53 52 51 52 53 51 45 40 38 36 31 26 21 17 14 14 14 12 13 11 7 8 11 12 10 9 8 7 7 7 5 2 1 1 1 1 2
30 33 40 44 45 45 45 43 42 42 42 41 38 35 34 33 29 24 19 14 12 14 15 14 13 12 8 8 10 11 11 11 10 6 6 8 5 2 1 1 2 2 2
30 32 36 38 36 36 36 34 34 34 33 33 32 32 30 26 23 21 19 17 14 13 13 12 11 11 9 9 10 10 10 12 10 7 7 9 6 3 2 2 3 3 2
30 31 34 35 33 32 30 28 29 30 29 29 29 27 24 19 16 17 19 18 15 11 10 10 8 8 8 8 9 9 11 12 11 8 8 8 8 7 5 4 5 5 4
29 29 30 31 31 29 27 27 29 29 27 26 24 21 18 13 12 14 15 15 12 9 8 7 7 5 5 6 8 8 9 10 10 8 7 6 8 9 7 5 4 4 4
24 24 26 28 30 30 28 27 27 26 24 22 19 17 14 11 10 10 11 11 10 8 7 6 5 4 3 5 6 7 7 7 6 6 6 5 5 5 5 4 2 2 2
21 22 25 29 31 30 28 26 24 23 22 19 15 13 11 10 9 8 8 8 8 7 6 6 5 4 3 4 5 6 6 6 6 6 7 5 3 2 2 2 0 0 1
20 22 26 29 30 28 24 23 22 22 21 18 13 10 9 8 7 6 6 6 6 6 5 6 6 5 3 3 5 6 7 6 7 8 8 5 2 0 0 0 0 1 2
19 20 23 25 25 23 21 20 21 21 21 17 12 10 9 6 5 4 5 5 5 5 5 6 6 5 3 3 3 6 7 7 7 8 6 3 1 0 0 0 0 1 2
18 16 17 19 20 20 20 20 20 20 19 15 12 12 10 6 4 4 5 5 6 6 6 6 5 4 3 1 1 3 6 7 6 6 4 1 0 0 0 0 0 0 1
17 14 13 14 16 18 20 20 19 18 16 13 12 12 10 6 3 4 5 5 6 8 7 6 5 4 3 1 0 1 4 4 4 4 3 1 0 0 0 0 0 0 0
16 15 14 14 17 19 21 21 19 17 15 12 11 11 9 5 3 4 5 5 6 7 5 4 4 4 3 1 0 1 2 3 4 4 3 2 1 0 0 0 0 0 0
14 14 14 15 18 22 24 23 21 19 15 11 9 8 7 4 3 4 5 6 6 6 3 2 3 4 2 0 0 1 2 4 5 6 3 1 1 0 0 0 0 0 0
13 13 13 13 15 19 21 21 20 19 16 11 7 6 5 5 5 5 6 6 8 7 5 2 2 2 2 0 0 1 2 4 6 6 4 2 1 0 0 0 0 0 0
12 12 11 11 11 13 15 15 15 15 13 10 7 5 6 6 6 6 7 8 9 9 7 4 2 1 1 0 0 0 1 2 3 5 5 3 1 0 0 0 0 0 0
13 11 11 11 12 13 11 9 8 9 9 8 6 4 4 4 4 4 6 9 9 8 6 4 2 2 1 1 0 0 0 0 1 3 4 2 1 0 0 0 0 0 0
13 11 10 11 12 13 11 8 6 7 7 6 4 2 1 1 1 2 4 7 7 6 4 4 4 5 4 3 2 1 0 0 1 2 2 1 0 0 0 0 0 0 0
13 12 10 9 9 9 9 7 6 6 6 4 3 1 0 0 0 1 3 4 4 4 4 5 5 5 4 4 4 3 2 1 0 1 1 0 0 0 0 0 0 0 0
12 11 8 6 5 5 5 5 5 5 3 2 1 0 0 0 0 1 2 3 3 2 3 3 3 4 3 3 3 4 3 2 0 0 0 0 0 0 0 0 0 0 0
12 9 6 4 4 4 3 4 4 3 2 1 0 0 0 0 0 1 2 2 2 1 1 1 2 3 3 2 1 2 2 1 0 0 0 0 0 0 0 0 0 0 0
Wind_Speed
14 14 14 15 15 15 16 15 15 14 12 10 10 9 9 9 8 8 9 9 9 8 7 6 7 6 5 5 6 5 5 4 3 3 3 4 5 4 4 4 4 5 5
13 14 15 15 16 16 16 15 15 15 14 11 10 9 9 8 8 8 9 10 10 9 8 7 7 7 5 6 6 5 4 4 4 4 3 3 5 5 6 5 5 5 5
13 15 15 15 15 16 17 14 15 15 15 13 9 8 7 7 8 9 9 11 11 10 9 9 8 7 8 7 7 7 7 5 5 4 4 3 3 3 5 6 5 5 5
12 13 14 15 15 15 14 15 15 15 15 14 12 13 11 11 11 10 9 11 12 11 11 10 10 9 8 7 8 8 6 6 5 5 4 4 3 3 3 5 6 7 7
11 12 13 14 14 14 13 13 14 15 15 15 14 14 13 11 9 10 11 11 11 12 12 11 10 9 8 8 8 6 8 7 7 6 5 5 4 6 5 3 4 5 6
9 10 11 11 11 12 12 12 14 14 15 16 16 16 16 13 12 12 11 11 9 10 13 12 11 10 9 9 8 8 10 8 7 6 5 5 5 6 5 5 5 4 4
8 9 10 10 11 12 12 12 13 13 15 15 15 16 16 15 14 13 12 10 9 9 11 11 10 10 9 9 9 9 9 9 8 8 7 6 6 5 5 5 5 4 4
7 7 8 9 9 11 11 11 12 13 14 15 14 14 15 12 11 13 11 11 9 9 10 11 11 11 11 10 9 8 9 8 8 9 8 6 6 5 5 6 5 5 5
6 6 7 7 8 9 9 11 11 11 12 13 13 13 14 13 12 11 11 9 9 8 10 11 12 12 11 10 10 8 9 8 9 8 8 7 6 6 6 6 6 6 6
6 6 6 6 6 6 7 8 9 9 10 11 11 10 12 12 12 10 11 11 11 10 10 11 12 11 11 11 10 9 9 9 8 6 7 6 6 5 6 6 6 6 6
7 6 5 5 5 6 6 7 8 8 8 9 9 9 10 11 11 10 11 11 10 11 11 12 12 12 11 11 10 10 9 10 9 8 8 8 7 6 6 6 6 6 6
6 6 6 6 5 5 6 6 6 7 7 8 8 9 9 9 10 10 10 10 11 11 12 12 12 12 12 11 12 12 11 10 10 9 8 9 7 7 7 6 7 6 6
6 6 6 5 5 4 4 5 6 6 6 7 8 8 8 8 8 9 9 9 10 11 11 11 11 11 11 11 11 11 10 10 10 9 9 9 8 8 7 7 6 5 6
7 6 5 5 4 4 4 5 5 5 5 6 7 7 7 7 7 7 7 8 9 10 10 10 10 10 10 10 10 10 10 9 9 9 9 8 8 8 8 7 6 6 6
7 6 5 4 4 4 4 4 4 5 5 5 6 6 6 6 7 7 7 7 8 8 8 9 9 9 8 8 9 9 10 9 9 8 8 7 6 5 5 5 6 6 6
6 5 5 4 4 4 4 4 4 4 4 4 4 5 5 6 6 6 6 7 7 7 7 7 7 7 6 4 5 6 6 7 7 7 6 6 7 6 6 4 3 4 6
6 5 4 3 3 3 3 4 5 5 4 4 4 4 5 5 6 6 6 6 5 5 5 5 5 5 4 5 6 5 5 5 5 5 5 4 4 5 6 6 6 5 6
5 4 4 3 3 4 4 4 5 5 5 4 4 4 5 5 6 6 5 4 4 4 4 4 3 3 3 5 6 5 4 3 2 2 2 3 3 3 4 4 4 4 4
4 4 4 4 4 4 4 4 5 5 5 4 4 4 5 5 5 6 6 5 5 4 3 3 3 3 3 4 4 4 3 3 2 1 0 1 1 1 1 3 3 3 3
5 5 5 5 4 4 4 5 5 5 4 3 3 3 4 5 5 5 5 5 5 5 4 4 4 4 4 5 4 3 2 3 2 2 3 5 3 3 2 2 2 2 2
6 6 5 5 4 4 5 6 5 5 4 3 4 4 5 6 6 5 5 6 6 6 6 7 6 6 6 6 6 3 2 3 3 3 3 4 6 5 5 3 1 1 2
7 7 6 6 5 5 6 6 6 5 5 6 6 6 6 6 7 7 7 7 7 8 7 7 7 6 6 7 7 7 5 4 5 4 4 5 7 7 6 4 3 3 2
8 7 8 8 7 6 6 7 6 6 7 8 8 8 9 8 8 7 7 7 6 6 6 5 6 5 5 6 9 9 9 8 6 6 9 7 6 5 5 4 3 2 1
8 8 9 9 8 8 8 8 7 7 9 10 10 9 10 10 9 7 7 7 6 6 6 5 6 6 5 4 3 5 6 7 6 6 6 6 5 4 3 3 2 2 3
8 8 9 10 9 9 9 9 8 9 10 11 10 10 10 10 11 11 10 9 9 7 5 6 6 5 6 6 7 5 5 4 4 3 3 3 3 3 3 3 3 3 3
9 10 10 10 10 10 10 9 8 9 10 10 9 8 8 9 9 11 12 19 15 18 18 14 10 10 10 9 10 10 9 6 3 2 5 4 4 4 3 3 3 3 4
Wind_Direction
184 182 184 185 186 188 188 188 188 186 185 186 188 194 193 195 195 195 189 190 193 191 203 204 181 206 201 199 194 192 184 199 198 205 194 190 202 197 194 212 212 194 199
179 181 185 186 188 189 190 191 191 190 191 192 193 198 197 198 195 196 190 197 197 198 201 211 201 199 202 201 205 203 210 201 198 222 214 203 195 202 208 203 215 217 206
184 183 186 189 189 191 191 191 192 192 194 192 191 194 194 201 195 199 196 200 199 201 211 205 215 204 211 201 205 204 210 215 205 224 239 235 222 192 188 210 218 215 221
190 185 187 190 194 192 191 193 192 194 194 192 195 196 199 201 201 199 197 195 200 203 206 210 211 213 216 207 209 207 211 216 220 209 237 267 311 264 206 199 206 211 221
190 187 189 191 193 191 190 193 193 196 196 197 198 202 209 210 202 199 199 199 198 204 207 209 209 211 218 212 220 210 218 217 226 223 216 221 226 248 263 239 214 208 215
187 185 187 186 189 189 190 191 193 196 197 198 200 206 211 210 204 202 198 200 200 202 206 209 207 210 217 210 212 215 215 226 230 236 232 227 226 231 240 245 239 233 220
180 180 182 183 184 189 190 191 194 197 199 201 203 208 212 211 208 205 203 204 204 202 203 207 207 211 215 214 212 211 218 216 219 227 233 239 245 249 251 260 258 254 236
167 173 179 183 186 187 190 191 196 201 201 202 205 209 211 212 210 208 207 203 209 207 199 205 209 212 213 213 210 214 213 213 217 225 229 238 239 242 248 256 263 257 249
163 168 173 177 183 186 189 193 196 201 202 204 206 209 210 212 210 206 208 206 204 206 203 208 210 210 210 211 207 215 214 211 216 219 214 229 234 236 244 246 252 261 266
157 160 163 169 174 178 185 187 188 197 201 202 205 206 207 208 207 206 208 206 204 206 205 211 213 210 208 206 207 209 209 211 213 222 222 225 234 233 237 241 243 251 262
153 151 151 155 159 163 168 173 178 187 193 198 200 203 203 204 204 205 206 206 205 203 205 210 213 211 210 207 206 212 205 211 211 212 214 220 235 232 235 234 237 241 247
142 140 139 141 145 153 161 168 174 181 187 190 193 197 198 199 202 205 207 207 204 204 205 208 209 210 210 209 208 212 210 212 212 213 216 222 222 224 239 239 239 244 250
140 136 133 133 138 145 152 159 173 181 185 186 192 194 194 195 202 205 205 205 205 206 205 205 207 209 208 209 212 214 213 213 216 215 215 220 223 223 226 233 240 242 240
141 136 132 130 130 136 145 158 165 170 173 183 188 190 191 194 196 197 200 205 204 202 201 202 206 209 209 209 210 213 214 214 215 215 215 216 219 222 225 227 233 242 248
141 138 135 128 135 139 139 141 145 149 161 174 180 186 188 188 188 189 191 194 195 197 196 197 200 206 208 210 209 211 211 210 213 215 215 217 220 229 234 241 234 234 242
137 134 131 136 147 151 147 141 139 145 155 164 171 174 178 177 180 180 180 182 184 188 187 191 195 200 206 183 194 214 213 210 212 213 213 214 209 207 207 233 259 269 257
130 126 124 126 140 148 150 149 145 147 148 151 152 155 161 165 167 164 164 173 175 171 174 179 185 189 174 151 175 199 218 212 213 213 215 224 218 206 211 202 209 233 251
118 114 114 113 128 138 147 149 143 142 138 139 141 142 145 148 149 149 150 150 154 157 153 154 154 157 133 130 151 162 198 208 203 201 208 216 228 220 224 224 222 227 233
107 105 103 110 109 113 127 138 137 135 132 129 132 137 146 145 146 147 146 141 139 134 126 122 123 124 105 108 140 159 170 164 163 160 125 200 214 57 185 215 221 231 246
99 99 98 99 105 107 121 124 121 117 112 113 119 125 135 139 141 138 137 135 133 127 117 98 88 89 85 79 102 157 166 152 135 100 74 57 50 52 92 191 215 234 264
95 94 95 93 92 99 112 111 104 98 95 100 101 99 105 111 114 114 118 122 121 113 104 95 84 78 72 75 68 76 129 130 119 102 88 65 66 66 73 74 57 351 326
93 91 90 84 80 90 104 102 93 90 92 89 84 85 86 90 98 100 101 105 111 109 105 101 91 77 70 66 72 73 70 82 102 98 90 77 77 77 70 71 38 12 339
89 87 89 84 75 76 87 91 85 89 93 88 84 82 82 78 83 91 96 98 99 102 103 103 97 86 80 81 80 81 76 75 86 84 81 80 89 102 85 67 33 2 352
91 92 91 84 75 72 74 77 82 88 93 90 85 83 83 80 74 72 74 78 81 94 99 99 97 91 77 62 79 108 111 112 109 109 112 110 96 96 86 87 70 46 25
90 88 86 84 81 81 78 79 85 92 94 92 91 89 86 85 77 68 53 60 52 46 68 82 82 84 79 47 38 53 69 74 86 114 119 97 87 74 65 61 50 36 35
93 90 87 85 84 83 80 81 87 96 100 98 96 93 95 95 95 94 80 59 62 59 55 52 66 72 70 70 65 63 61 55 27 70 80 69 58 47 40 37 38 38 29